When you browse on this site, cookies collect data to enhance your experience and personalize the content and advertising you see.
Visit our Privacy Policy to learn more. By continuing to use the site, you agree to this use of cookies and data.
  • In Lithuania
  • List of Countries
  • For 7 days
  • Water Temperature
  • Weather Map
  • Weather Widgets
  • user-avatar
    Login

    Hourly Weather Graz

    Today, 15 October, Tuesday

    Time Temperature Precipitation Wind Pressure Humidity
    00:00 +14°C° 0 mm 1 mps 723 mmHg 91%
    01:00 +13°C° 0 mm 1 mps 723 mmHg 92%
    02:00 +13°C° 0 mm 1 mps 723 mmHg 92%
    03:00 +12°C° 0 mm 1 mps 722 mmHg 92%
    04:00 +12°C° 0 mm 1 mps 722 mmHg 93%
    05:00 +12°C° 0 mm 1 mps 722 mmHg 92%
    06:00 +12°C° 0 mm 1 mps 722 mmHg 92%
    07:00 +12°C° 0 mm 1 mps 722 mmHg 92%
    08:00 +14°C° 0 mm 1 mps 722 mmHg 84%
    09:00 +16°C° 0 mm 1 mps 722 mmHg 77%
    10:00 +18°C° 0 mm 2 mps 721 mmHg 69%
    11:00 +19°C° 0 mm 2 mps 721 mmHg 66%
    12:00 +20°C° 0 mm 2 mps 721 mmHg 64%
    13:00 +21°C° 0 mm 2 mps 721 mmHg 61%
    14:00 +20°C° 0 mm 2 mps 720 mmHg 64%
    15:00 +20°C° 0 mm 2 mps 720 mmHg 67%
    16:00 +20°C° 0 mm 2 mps 719 mmHg 70%
    17:00 +18°C° 0 mm 2 mps 719 mmHg 77%
    18:00 +16°C° 0 mm 2 mps 719 mmHg 83%
    19:00 +15°C° 0 mm 2 mps 719 mmHg 90%
    20:00 +14°C° 0 mm 2 mps 720 mmHg 91%
    21:00 +14°C° 0 mm 2 mps 720 mmHg 92%
    22:00 +13°C° 0 mm 2 mps 720 mmHg 93%
    23:00 +13°C° 0 mm 1 mps 720 mmHg 93%

    Tomorrow, 16 October, Wednesday

    Time Temperature Precipitation Wind Pressure Humidity
    00:00 +13°C° 0 mm 1 mps 721 mmHg 93%
    01:00 +13°C° 0 mm 1 mps 721 mmHg 93%
    02:00 +13°C° 0 mm 1 mps 721 mmHg 93%
    03:00 +13°C° 0 mm 1 mps 721 mmHg 93%
    04:00 +12°C° 0 mm 0 mps 721 mmHg 93%
    05:00 +13°C° 0 mm 1 mps 722 mmHg 93%
    06:00 +13°C° 0 mm 1 mps 722 mmHg 93%
    07:00 +13°C° 0 mm 1 mps 723 mmHg 93%
    08:00 +13°C° 0.1 mm 1 mps 723 mmHg 89%
    09:00 +14°C° 0.1 mm 1 mps 724 mmHg 86%
    10:00 +14°C° 0.1 mm 1 mps 724 mmHg 83%
    11:00 +15°C° 0 mm 1 mps 724 mmHg 80%
    12:00 +15°C° 0 mm 1 mps 724 mmHg 77%
    13:00 +16°C° 0 mm 1 mps 724 mmHg 74%
    14:00 +15°C° 0 mm 1 mps 724 mmHg 76%
    15:00 +15°C° 0 mm 1 mps 724 mmHg 78%
    16:00 +14°C° 0 mm 1 mps 724 mmHg 79%
    17:00 +14°C° 0 mm 1 mps 724 mmHg 82%
    18:00 +12°C° 0 mm 0 mps 725 mmHg 84%
    19:00 +11°C° 0 mm 0 mps 725 mmHg 87%
    20:00 +11°C° 0 mm 0 mps 725 mmHg 88%
    21:00 +11°C° 0 mm 0 mps 725 mmHg 89%
    22:00 +10°C° 0 mm 0 mps 725 mmHg 91%
    23:00 +10°C° 0 mm 0 mps 725 mmHg 91%

    Day after tomorrow, 17 October, Thursday

    Time Temperature Precipitation Wind Pressure Humidity
    00:00 +11°C° 0 mm 1 mps 725 mmHg 92%
    01:00 +11°C° 0 mm 1 mps 725 mmHg 93%
    02:00 +10°C° 0 mm 1 mps 725 mmHg 93%
    03:00 +10°C° 0 mm 1 mps 725 mmHg 93%
    04:00 +10°C° 0 mm 1 mps 725 mmHg 94%
    05:00 +10°C° 0 mm 1 mps 725 mmHg 93%
    06:00 +10°C° 0 mm 1 mps 725 mmHg 93%
    07:00 +10°C° 0 mm 1 mps 725 mmHg 93%
    08:00 +12°C° 0 mm 1 mps 725 mmHg 84%
    09:00 +15°C° 0 mm 1 mps 725 mmHg 76%
    10:00 +16°C° 0 mm 0 mps 725 mmHg 67%
    11:00 +19°C° 0 mm 1 mps 725 mmHg 64%
    12:00 +19°C° 0 mm 1 mps 725 mmHg 60%
    13:00 +20°C° 0 mm 1 mps 725 mmHg 56%
    14:00 +20°C° 0 mm 1 mps 725 mmHg 60%
    15:00 +19°C° 0 mm 1 mps 725 mmHg 64%
    16:00 +18°C° 0 mm 1 mps 725 mmHg 68%
    17:00 +16°C° 0 mm 1 mps 725 mmHg 74%
    18:00 +14°C° 0 mm 1 mps 725 mmHg 79%
    19:00 +13°C° 0 mm 1 mps 725 mmHg 85%
    20:00 +12°C° 0 mm 1 mps 725 mmHg 85%
    21:00 +12°C° 0 mm 1 mps 725 mmHg 84%
    22:00 +12°C° 0 mm 1 mps 726 mmHg 84%
    23:00 +11°C° 0 mm 1 mps 725 mmHg 85%

    18 October, Friday

    Time Temperature Precipitation Wind Pressure Humidity
    00:00 +11°C° 0 mm 1 mps 725 mmHg 85%
    01:00 +11°C° 0 mm 1 mps 725 mmHg 86%
    02:00 +11°C° 0 mm 1 mps 725 mmHg 86%
    03:00 +11°C° 0 mm 1 mps 725 mmHg 86%
    04:00 +10°C° 0 mm 1 mps 725 mmHg 87%
    05:00 +11°C° 0 mm 1 mps 725 mmHg 86%
    06:00 +11°C° 0 mm 1 mps 725 mmHg 86%
    07:00 +11°C° 0 mm 1 mps 725 mmHg 86%
    08:00 +12°C° 0 mm 0 mps 725 mmHg 78%
    09:00 +14°C° 0 mm 0 mps 725 mmHg 70%
    10:00 +16°C° 0 mm 0 mps 725 mmHg 62%
    11:00 +17°C° 0 mm 0 mps 725 mmHg 60%
    12:00 +20°C° 0 mm 1 mps 725 mmHg 58%
    13:00 +20°C° 0 mm 1 mps 724 mmHg 56%
    14:00 +19°C° 0 mm 1 mps 724 mmHg 61%
    15:00 +19°C° 0 mm 1 mps 724 mmHg 65%
    16:00 +18°C° 0 mm 1 mps 724 mmHg 70%
    17:00 +16°C° 0 mm 1 mps 724 mmHg 75%
    18:00 +14°C° 0 mm 1 mps 724 mmHg 80%
    19:00 +13°C° 0 mm 1 mps 724 mmHg 85%
    20:00 +13°C° 0 mm 1 mps 724 mmHg 85%
    21:00 +12°C° 0 mm 1 mps 724 mmHg 86%
    22:00 +12°C° 0 mm 1 mps 724 mmHg 86%
    23:00 +12°C° 0 mm 1 mps 724 mmHg 88%

    19 October, Saturday

    Time Temperature Precipitation Wind Pressure Humidity
    00:00 +11°C° 0 mm 1 mps 723 mmHg 89%
    01:00 +11°C° 0 mm 1 mps 723 mmHg 90%
    02:00 +11°C° 0 mm 1 mps 723 mmHg 91%
    03:00 +11°C° 0 mm 1 mps 723 mmHg 91%
    04:00 +11°C° 0 mm 1 mps 723 mmHg 91%
    05:00 +11°C° 0 mm 1 mps 723 mmHg 91%
    06:00 +11°C° 0 mm 1 mps 723 mmHg 90%
    07:00 +11°C° 0 mm 1 mps 723 mmHg 89%
    08:00 +13°C° 0 mm 1 mps 723 mmHg 82%
    09:00 +15°C° 0 mm 1 mps 723 mmHg 75%
    10:00 +18°C° 0 mm 1 mps 723 mmHg 67%
    11:00 +19°C° 0 mm 1 mps 723 mmHg 64%
    12:00 +20°C° 0 mm 1 mps 723 mmHg 61%
    13:00 +20°C° 0 mm 2 mps 722 mmHg 57%
    14:00 +20°C° 0 mm 1 mps 722 mmHg 62%
    15:00 +20°C° 0 mm 1 mps 722 mmHg 66%
    16:00 +19°C° 0 mm 1 mps 721 mmHg 71%
    17:00 +16°C° 0 mm 1 mps 721 mmHg 77%
    18:00 +15°C° 0 mm 1 mps 721 mmHg 83%
    19:00 +13°C° 0 mm 1 mps 721 mmHg 88%
    20:00 +13°C° 0 mm 1 mps 721 mmHg 89%
    21:00 +13°C° 0 mm 1 mps 721 mmHg 90%
    22:00 +13°C° 0 mm 1 mps 721 mmHg 90%
    23:00 +12°C° 0 mm 2 mps 721 mmHg 90%

    20 October, Sunday

    Time Temperature Precipitation Wind Pressure Humidity
    00:00 +12°C° 0 mm 2 mps 721 mmHg 90%
    01:00 +12°C° 0 mm 2 mps 721 mmHg 90%
    02:00 +12°C° 0 mm 1 mps 721 mmHg 90%
    03:00 +12°C° 0 mm 1 mps 721 mmHg 90%
    04:00 +12°C° 0 mm 1 mps 721 mmHg 90%
    05:00 +12°C° 0 mm 1 mps 721 mmHg 90%
    06:00 +12°C° 0 mm 1 mps 722 mmHg 91%
    07:00 +12°C° 0 mm 1 mps 722 mmHg 91%
    08:00 +14°C° 0 mm 1 mps 723 mmHg 84%
    09:00 +15°C° 0 mm 1 mps 723 mmHg 78%
    10:00 +16°C° 0 mm 0 mps 723 mmHg 71%
    11:00 +19°C° 0 mm 1 mps 723 mmHg 70%
    12:00 +19°C° 0 mm 1 mps 723 mmHg 68%
    13:00 +20°C° 0 mm 1 mps 723 mmHg 66%
    14:00 +19°C° 0 mm 1 mps 723 mmHg 70%
    15:00 +19°C° 0 mm 1 mps 723 mmHg 73%
    16:00 +19°C° 0 mm 1 mps 723 mmHg 76%
    17:00 +16°C° 0 mm 1 mps 723 mmHg 81%
    18:00 +15°C° 0 mm 1 mps 723 mmHg 86%
    19:00 +14°C° 0 mm 1 mps 723 mmHg 90%
    20:00 +14°C° 0 mm 1 mps 723 mmHg 91%
    21:00 +13°C° 0 mm 1 mps 723 mmHg 92%
    22:00 +13°C° 0 mm 1 mps 723 mmHg 93%
    23:00 +12°C° 0 mm 0 mps 722 mmHg 93%
    Show more